Probability
0 1 1 1 0 0 0 0 0 0 0 0 0 0 0 0 0 0 0 0 0 0 0 0 0 0 0 0 0 0 0 0 0 0 0 0 0 0 0 0 0 0 0 0 1 2 3 3 3
0 0 0 0 0 0 0 0 0 0 0 0 0 0 0 0 0 0 0 0 0 0 0 0 0 0 0 0 0 0 0 0 0 0 0 0 0 0 0 0 0 0 0 1 1 3 3 3 3
0 0 0 0 0 0 0 0 0 0 0 0 0 0 0 0 0 0 0 0 0 0 0 0 0 0 0 0 0 0 0 0 0 0 0 0 0 0 0 0 0 0 1 2 3 3 3 3 3
0 0 0 0 0 0 0 0 0 0 0 0 0 0 0 0 0 0 0 0 0 0 0 0 0 0 0 0 0 0 0 0 0 0 0 0 0 0 0 0 0 0 1 2 3 3 3 3 3
0 0 0 0 0 0 0 0 0 0 0 0 0 0 0 0 0 0 0 0 0 0 0 0 0 0 0 0 0 0 0 0 0 0 0 0 0 0 1 0 0 0 1 2 3 3 3 3 3
0 0 0 0 0 0 0 0 0 0 0 0 0 0 0 0 0 0 0 0 0 0 0 0 0 0 0 0 0 0 0 0 0 0 0 0 0 0 0 0 0 0 1 1 1 2 2 2 2
0 0 0 0 0 0 0 0 0 0 0 0 0 0 0 0 0 0 0 0 0 0 0 0 0 0 0 0 0 0 0 0 0 0 0 0 0 0 0 0 0 0 1 0 0 1 1 1 1
0 0 0 0 0 0 0 0 0 0 0 0 0 0 0 0 0 0 0 0 0 0 0 0 0 0 0 0 0 0 0 0 0 0 0 0 0 0 0 0 0 0 0 0 0 0 0 0 0
0 0 0 0 0 0 0 0 0 0 0 0 0 0 0 0 0 0 0 0 0 0 0 0 0 0 0 0 0 0 0 0 0 0 0 0 0 0 0 0 0 0 0 0 0 0 0 0 0
0 0 0 0 0 0 0 0 0 0 0 0 0 0 0 0 0 0 0 0 0 0 0 0 0 0 0 0 0 0 0 0 0 0 0 0 0 0 0 0 0 0 0 0 0 0 0 0 0
0 0 0 0 0 0 0 0 0 0 0 0 0 0 0 0 0 0 0 0 0 0 0 0 0 0 0 0 0 0 0 0 0 0 0 0 0 0 0 0 0 0 0 0 0 0 0 0 0
0 0 0 0 0 0 0 0 0 0 0 0 0 0 0 0 0 0 0 0 0 0 0 0 0 0 0 0 0 0 0 0 0 0 0 0 0 0 0 0 0 0 0 0 0 0 0 0 0
0 0 0 0 0 0 0 0 0 0 0 0 0 0 0 0 0 0 0 0 0 0 0 0 0 0 0 0 0 0 0 0 0 0 0 0 0 0 0 0 0 0 0 0 0 0 0 0 0
0 0 0 0 0 0 0 0 0 0 0 0 0 0 0 0 0 0 0 0 0 0 0 0 0 1 1 1 1 1 1 1 1 1 1 0 0 0 1 1 0 0 0 0 0 0 0 0 0
0 0 0 0 0 0 0 0 0 0 0 0 0 0 0 0 0 0 0 0 0 0 1 1 1 1 2 1 1 0 1 2 2 2 2 1 0 0 1 1 0 0 0 0 0 0 0 0 0
0 0 0 0 0 0 0 0 0 0 0 0 0 0 0 0 0 0 0 0 0 0 1 1 0 1 2 1 0 0 0 1 2 3 2 1 0 0 0 0 0 0 0 0 0 0 0 0 0
0 0 0 0 0 0 0 0 0 0 0 0 0 0 0 0 0 0 0 0 0 0 0 0 0 0 1 1 0 0 0 0 1 2 1 0 0 0 0 0 0 0 0 0 0 0 0 0 0
0 0 0 0 0 0 0 0 0 0 0 0 0 0 0 0 0 0 0 0 0 0 0 0 0 0 0 0 0 0 0 0 0 0 0 0 0 0 0 0 0 0 0 0 0 0 0 0 0
0 0 0 0 0 0 0 0 0 0 0 0 0 0 0 0 0 0 0 0 0 0 0 0 0 0 0 0 0 0 0 0 0 0 0 0 0 0 0 0 0 0 0 0 0 0 0 0 0
0 0 0 0 0 0 0 0 0 0 0 0 0 0 0 0 0 0 0 0 0 0 0 0 0 0 0 0 0 0 0 0 0 0 0 0 0 0 0 0 1 1 0 0 0 0 0 0 0
0 0 0 0 0 0 0 0 0 0 0 0 0 0 0 0 0 0 0 0 0 0 0 0 0 0 0 0 0 0 0 0 0 0 0 0 0 0 0 0 1 1 0 0 0 0 0 0 0
0 0 0 0 0 0 0 0 0 0 0 0 0 0 0 0 0 0 0 0 0 0 0 0 0 0 0 0 0 0 0 0 0 0 0 0 0 0 0 0 0 0 0 0 0 0 0 0 0
0 0 0 0 0 0 0 0 0 0 0 0 0 0 0 0 0 0 0 0 0 0 0 0 0 0 0 0 0 0 0 0 0 0 0 0 0 0 0 0 0 0 0 0 0 0 0 0 0
0 0 0 0 0 0 0 0 0 0 0 0 0 0 0 0 0 0 0 0 1 1 0 0 0 0 0 0 0 0 0 0 0 0 0 0 0 0 0 0 0 0 0 0 0 0 0 0 0
0 0 0 0 0 0 0 0 0 0 0 0 0 0 0 0 0 0 0 1 2 2 1 0 0 0 0 0 0 0 0 0 0 0 0 0 0 0 0 0 0 0 0 0 0 0 0 0 0
0 0 0 0 0 0 0 0 0 0 0 0 0 0 0 0 0 0 0 2 3 2 1 0 0 0 0 0 0 0 0 0 0 0 0 0 0 0 0 0 0 0 0 0 0 0 0 0 0
0 0 0 0 0 0 0 0 0 0 0 0 0 0 0 0 0 0 0 1 3 2 1 0 0 0 0 0 0 0 0 0 0 0 0 0 0 0 0 0 0 0 0 0 0 0 0 0 0
0 0 0 0 0 0 0 0 0 0 0 0 0 0 0 0 0 0 0 1 2 2 1 0 0 0 0 0 0 0 0 0 0 0 0 0 0 0 0 0 0 0 0 0 0 0 0 0 0
0 0 0 0 0 0 0 0 0 0 0 0 0 0 0 0 0 0 0 0 1 1 0 0 0 0 0 0 0 0 0 0 0 0 0 0 0 0 0 0 0 0 0 0 0 0 0 0 0
0 0 0 0 0 0 0 0 0 0 0 0 0 0 0 0 0 0 0 0 0 0 0 0 0 0 0 0 0 0 0 0 0 0 0 0 0 0 0 0 0 0 0 0 0 0 0 0 0
Wind_Speed
3 1 2 2 2 4 8 6 5 5 5 7 7 6 7 8 7 6 5 4 4 4 5 6 7 7 7 7 8 8 8 8 8 8 7 7 7 7 7 7 8 7 6 5 4 6 6 7 8
0 1 2 1 1 6 7 6 7 8 6 4 5 6 7 8 6 5 4 4 3 4 5 7 7 6 7 7 7 8 8 8 8 8 8 8 7 7 7 8 8 8 8 8 7 9 8 8 8
1 1 1 1 4 6 7 6 7 7 5 3 4 6 6 6 5 4 4 3 3 5 5 7 6 7 7 7 7 8 8 8 8 8 8 8 8 8 8 8 8 9 9 10 10 10 10 9 9
1 1 1 5 12 10 8 7 6 6 5 5 4 6 7 6 4 5 5 5 5 5 6 8 6 7 7 7 7 7 8 8 9 9 8 8 8 8 8 8 8 9 9 10 10 11 11 10 10
1 1 5 9 11 9 7 5 4 5 5 6 6 8 8 6 5 6 5 6 6 6 6 8 7 7 7 7 8 8 9 9 9 9 10 9 9 8 8 9 9 9 10 10 11 11 11 11 10
1 1 6 9 10 8 7 6 6 7 7 6 6 7 7 6 5 5 5 6 6 6 6 7 8 7 7 7 7 8 8 9 10 10 10 9 9 10 9 9 10 10 10 10 11 11 10 11 10
3 4 8 11 9 9 7 5 5 6 6 6 4 6 7 6 5 5 6 5 6 6 5 5 6 7 8 8 8 9 9 9 10 10 10 10 10 10 10 10 10 10 10 10 10 10 11 11 10
1 4 9 8 8 8 6 5 5 5 6 5 2 4 6 6 4 5 6 5 5 5 5 5 6 6 6 7 9 8 9 9 9 10 9 8 8 9 9 10 11 10 10 10 11 11 11 11 10
1 5 8 7 6 7 6 6 5 4 6 6 6 7 7 8 6 5 5 5 5 4 4 5 5 5 5 6 7 6 7 7 5 7 7 3 5 7 7 11 10 10 10 10 11 10 10 9 9
3 6 8 6 6 7 6 5 5 4 6 6 7 7 7 7 5 5 5 5 5 4 5 4 5 5 5 5 5 4 5 5 5 6 5 4 5 6 6 10 10 10 9 9 10 7 6 3 5
6 7 7 6 6 6 5 5 4 3 5 5 6 8 7 6 5 5 4 4 4 5 5 5 5 5 5 4 4 3 3 3 5 6 5 4 4 4 4 4 5 6 5 5 6 4 4 5 4
7 7 6 6 5 4 4 4 4 3 4 5 6 7 7 6 5 4 4 5 4 5 5 5 4 5 5 4 4 3 3 3 4 4 5 4 3 3 4 3 4 4 3 4 4 3 5 6 6
7 7 6 6 5 4 4 4 4 4 4 5 6 7 6 5 5 4 4 4 4 4 4 5 4 4 5 4 2 3 3 3 4 3 3 4 3 4 4 3 3 4 4 3 3 4 6 6 6
6 6 5 4 4 4 4 3 3 3 4 6 6 5 5 5 4 4 4 4 4 4 5 5 4 4 4 4 3 3 3 3 3 3 4 4 3 3 3 4 4 4 3 3 3 5 5 5 5
6 6 5 3 2 2 2 3 3 3 4 5 5 5 4 4 4 3 3 3 3 4 5 5 4 4 4 4 4 3 2 3 3 3 4 4 4 4 3 4 4 4 4 4 4 5 4 5 5
4 3 3 3 1 1 3 2 4 4 4 4 4 5 4 4 4 3 3 3 3 3 4 5 3 4 4 3 3 2 3 3 3 3 3 4 4 4 4 3 4 4 3 3 4 3 3 4 4
3 2 3 3 2 1 2 0 3 4 4 4 4 4 5 5 4 3 3 3 3 3 3 5 4 4 4 3 3 2 3 3 3 3 3 3 4 4 4 3 3 4 3 3 3 3 3 4 4
2 2 1 1 2 1 2 1 2 4 5 4 4 4 5 4 4 4 4 4 3 3 3 4 5 3 4 2 2 3 2 2 2 2 3 3 3 3 3 2 3 3 3 3 3 3 3 3 3
2 2 2 0 0 2 2 2 2 3 5 5 5 5 5 4 4 4 4 5 5 5 4 4 4 4 3 2 1 1 2 1 2 2 3 3 3 2 3 2 2 2 2 3 3 3 3 3 2
5 4 3 1 1 3 3 4 3 3 5 4 5 5 5 5 4 5 5 6 6 5 5 5 4 4 3 1 1 1 1 1 2 1 2 2 2 2 2 2 2 2 2 2 3 2 1 1 0
5 5 3 2 2 5 5 4 3 3 4 4 4 5 5 4 5 5 6 6 6 6 5 4 5 5 4 3 2 2 2 1 2 2 2 2 2 2 1 2 2 2 2 2 2 1 1 0 0
4 2 4 4 5 2 4 4 1 2 4 4 5 5 5 5 5 5 6 7 7 6 5 5 5 5 4 4 2 2 1 1 1 1 2 2 2 2 1 2 2 2 1 2 1 1 0 1 0
1 1 3 4 6 6 5 6 1 3 3 3 4 5 5 5 5 5 5 7 6 6 5 5 5 5 4 3 3 2 1 1 1 1 2 2 2 1 1 1 1 1 1 1 1 0 1 1 1
4 5 4 5 6 6 3 5 2 2 2 2 3 4 5 5 5 5 5 6 6 6 6 5 5 5 4 3 3 3 2 2 2 1 1 1 1 1 1 1 1 1 1 1 1 1 1 1 1
6 6 5 5 5 3 1 5 3 2 1 2 2 3 4 5 5 5 6 7 7 7 7 6 6 5 4 4 3 3 2 1 2 1 1 1 1 1 1 1 1 1 1 1 1 1 1 1 1
7 8 6 4 3 2 4 5 1 2 1 1 2 2 4 5 4 5 6 7 7 8 7 7 6 5 5 4 4 3 2 1 1 1 1 1 1 0 1 1 1 1 1 1 1 1 1 1 1
6 7 6 7 6 6 4 3 3 3 2 2 2 3 4 4 4 5 5 7 7 7 7 7 7 6 5 4 4 3 3 2 2 2 1 1 1 1 1 2 2 1 1 1 1 2 1 1 1
4 4 5 7 6 6 4 5 2 4 3 3 3 3 3 4 4 5 5 6 6 6 6 6 6 6 5 4 3 2 2 2 2 2 2 1 1 1 1 2 2 2 2 2 1 1 1 2 1
5 6 7 6 7 6 5 1 2 1 1 2 3 2 3 4 4 4 5 6 6 6 6 6 6 5 4 4 4 4 3 3 3 2 2 2 2 2 2 2 2 1 1 2 1 1 1 2 2
6 6 7 7 7 7 7 2 2 1 1 2 2 2 2 3 4 4 5 6 6 6 6 6 5 5 5 4 4 4 3 3 3 3 2 2 2 2 2 2 2 1 1 1 1 2 2 2 2
Wind_Direction
166 177 229 233 193 89 75 70 67 72 63 57 53 52 58 45 26 50 64 47 36 41 48 70 65 60 64 67 64 61 63 67 66 69 72 72 75 80 80 76 74 72 67 63 84 113 114 113 113
99 220 237 250 116 99 83 80 76 66 77 83 69 64 68 64 49 67 71 50 43 53 57 59 65 67 69 69 68 64 62 64 65 69 72 75 76 76 75 74 69 67 64 67 87 102 104 106 109
156 261 309 45 69 73 91 86 83 83 83 72 75 58 48 54 56 65 67 71 67 66 67 70 62 68 68 71 72 71 66 64 66 72 75 77 76 74 73 70 69 69 69 72 80 88 93 97 102
226 193 108 87 84 73 86 95 98 103 87 65 75 78 70 53 50 72 86 84 80 73 73 77 63 66 69 70 72 72 69 67 68 70 72 75 76 76 77 75 73 71 72 74 79 86 89 91 94
236 142 109 97 87 84 79 77 88 85 77 75 77 83 77 69 73 85 88 79 74 70 69 78 67 65 68 69 71 76 72 67 70 71 68 69 72 75 78 77 77 76 74 76 80 84 88 90 89
151 135 111 100 97 92 89 94 94 86 88 87 85 86 81 88 87 89 86 80 74 71 71 81 88 73 66 69 71 73 71 67 70 71 69 71 73 73 79 78 79 77 77 79 81 82 88 89 90
91 95 100 105 105 99 87 84 81 85 84 73 77 89 98 92 84 100 99 90 81 74 70 69 85 100 97 76 69 72 71 68 70 72 72 71 72 72 72 74 76 77 77 80 84 85 85 86 85
66 113 111 105 107 96 95 96 76 68 78 78 67 86 102 108 116 115 108 100 89 82 72 67 73 73 82 92 82 73 71 70 73 74 73 79 90 87 80 79 76 74 72 75 78 80 82 82 80
150 116 106 104 105 103 111 109 94 87 98 93 78 73 91 119 132 126 118 110 97 85 80 79 77 77 76 79 91 93 90 81 93 97 86 88 86 84 88 71 73 70 69 73 71 72 78 87 90
88 97 93 96 103 108 107 98 103 118 104 101 103 104 115 130 130 123 117 110 103 93 83 76 80 85 84 80 86 76 79 81 67 66 70 66 67 68 70 87 78 74 76 85 76 77 88 80 88
82 89 102 105 105 107 105 101 105 106 84 86 111 125 131 131 129 122 117 104 93 91 85 80 81 85 90 90 76 68 67 72 71 65 72 68 74 87 77 87 100 89 84 80 83 83 63 60 62
96 93 100 107 111 113 101 104 98 79 68 84 104 119 132 137 135 124 113 107 107 92 85 86 88 90 89 86 80 75 70 66 66 63 64 65 68 71 72 72 69 75 74 68 61 59 68 64 66
101 100 99 106 113 112 108 101 89 87 101 113 119 128 135 138 134 122 110 109 104 101 97 89 90 92 93 85 81 81 71 61 77 67 65 71 69 75 83 81 78 76 80 84 79 72 71 64 60
102 108 109 109 113 115 115 111 116 97 127 133 135 138 142 141 136 133 128 121 116 113 102 98 97 100 105 108 98 75 74 82 69 67 67 77 81 80 73 82 77 73 75 76 83 82 75 68 63
128 125 117 98 116 125 153 120 108 126 151 148 146 141 143 148 151 149 132 131 123 116 110 102 97 98 100 93 82 76 76 74 71 74 73 81 77 78 74 69 76 75 86 91 84 82 77 74 72
149 156 129 98 105 154 228 106 103 140 167 163 161 150 159 164 172 156 141 139 132 127 121 116 117 110 100 95 93 82 74 72 73 75 71 73 78 77 74 70 75 80 85 90 93 86 81 80 76
178 156 122 119 107 178 230 152 126 167 186 186 183 170 174 168 175 165 161 161 155 143 141 133 124 119 107 100 104 86 80 72 67 73 68 62 72 80 83 73 73 81 87 90 94 85 81 85 82
170 165 150 149 101 192 230 243 177 186 210 211 197 190 185 183 179 168 168 168 161 157 157 139 126 125 113 117 112 106 91 81 73 73 80 68 64 71 86 93 91 88 93 93 94 95 90 90 94
202 205 206 183 300 256 268 279 256 209 215 216 204 198 196 192 179 167 169 174 171 168 169 145 141 133 126 131 127 112 102 95 89 75 71 84 80 79 83 83 85 88 92 104 108 103 106 101 106
205 217 211 189 184 261 284 285 266 223 221 222 216 205 201 194 181 175 180 177 174 169 169 156 148 142 141 132 116 107 93 77 75 98 98 87 82 76 79 92 103 110 117 122 120 123 109 110 151
218 234 238 242 237 235 270 263 210 188 197 205 220 219 206 200 195 184 182 177 172 173 173 163 155 155 152 143 135 125 115 126 130 119 100 89 92 81 72 90 101 114 131 126 145 161 168 121 94
231 236 236 240 252 260 275 285 218 187 192 194 201 209 208 197 199 192 184 179 180 177 176 169 159 158 149 152 160 149 141 116 93 92 109 114 100 89 71 86 94 108 107 131 156 131 269 282 39
254 190 223 248 267 267 244 261 222 179 215 209 198 201 205 199 195 193 189 183 178 170 172 174 161 156 154 164 162 183 140 119 124 134 124 132 117 111 114 112 117 121 130 133 123 112 276 281 306
163 185 197 226 250 254 251 255 255 172 237 226 197 196 197 194 192 188 180 176 170 165 166 167 166 160 159 177 185 190 161 162 151 161 143 147 138 145 139 159 166 150 144 156 179 203 230 273 308
208 229 230 221 219 235 159 248 258 62 334 275 231 191 179 183 185 182 177 175 172 170 171 169 169 169 172 185 195 188 190 194 184 182 169 184 163 168 163 183 206 187 171 184 212 229 250 244 258
225 241 256 272 267 250 205 241 146 75 297 260 218 184 171 173 179 180 179 177 174 174 175 176 175 175 178 192 198 198 189 212 197 198 209 215 209 171 185 192 201 195 202 210 214 255 251 264 254
220 231 268 279 278 270 229 220 189 171 182 166 168 170 172 175 179 179 176 176 174 173 174 177 176 177 181 193 204 212 213 209 203 205 207 206 209 199 199 192 198 183 218 241 228 249 240 253 281
267 227 221 238 256 255 240 237 213 178 192 184 182 182 175 174 175 176 173 173 171 169 171 174 177 174 178 190 204 217 224 216 231 235 217 218 209 205 206 206 204 185 201 213 232 257 262 246 236
193 206 229 243 256 267 265 216 69 271 214 210 197 183 180 174 173 170 169 166 165 165 168 173 176 176 178 188 199 207 205 219 217 221 224 236 218 199 203 211 223 219 210 201 188 234 221 244 228
242 235 233 246 244 253 272 262 98 301 256 230 211 176 165 170 169 168 162 160 164 167 170 174 177 179 183 189 199 206 197 212 221 218 225 228 228 227 225 211 220 225 237 235 223 225 239 244 250